Home   Weather   Lawrence   Past weeks

Flag for USA Past Weather in Lawrence, Kansas, USA — Yesterday and Last 2 Weeks

Now
71 °F

Overcast.


Feels Like: 75 °F
Forecast: 56 / 74 °F
Wind: 5 mph from South

Location: Lawrence Municipal Airport

Current Time: Apr 25, 2017 at 5:38:04 pm

Latest Report: Apr 25, 2017 at 4:52 pm


Visibility: 10 mi

Pressure: 29.39 "Hg

Humidity: 63%

Dew Point: 58 °F

Location of LawrenceLocation

Past Weather in Lawrence — Graph

°F

Lawrence Temperature Yesterday

Maximum temperature yesterday: 75 °F (at 2:52 pm)
Minimum temperature yesterday: 43 °F (at 3:52 am)
Average temperature yesterday: 61 °F

High & Low Weather Summary for the Past Weeks

 TemperatureHumidityPressure
High80 °F (Apr 15, 2:52 pm)100% (Apr 12, 6:52 am)30.35 "Hg (Apr 12, 6:52 am)
Low34 °F (Apr 23, 5:52 am)23% (Apr 23, 2:52 pm)29.39 "Hg (Apr 25, 12:52 pm)
Average62 °F68%30.01 "Hg
* Reported Apr 10 3:52 pm — Apr 25 3:52 pm, Lawrence, Weather by CustomWeather, © 2017

Note: Actual official high and low records may vary slightly from our data, if they occured in-between our weather recording intervals... More about our weather records

Advertising

Lawrence Weather History for the Previous 24 Hours

Scroll right to see more
 ConditionsComfort  
Time TempWeatherWind HumidityBarometerVisibility
3:52 pm
Tue, Apr 25
71 °FOvercast.5 mph61%29.39 "Hg10 mi
2:52 pm71 °FOvercast.7 mph61%29.39 "Hg10 mi
1:52 pm70 °FOvercast.7 mph61%29.39 "Hg10 mi
12:52 pm71 °FOvercast.9 mph57%29.39 "Hg10 mi
11:52 am72 °FScattered clouds.13 mph53%29.39 "Hg10 mi
10:52 am69 °FSunny.16 mph55%29.40 "Hg10 mi
9:52 am67 °FSunny.16 mph57%29.41 "Hg10 mi
8:52 am64 °FSunny.16 mph56%29.43 "Hg10 mi
7:52 am60 °FSunny.10 mph67%29.44 "Hg10 mi
6:52 am57 °FSunny.7 mph74%29.46 "Hg10 mi
5:52 am59 °FClear.10 mph69%29.46 "Hg10 mi
5:28 am59 °FThunderstorms. Passing clouds.10 mph69%29.49 "Hg10 mi
4:52 am60 °FPassing clouds.7 mph67%29.49 "Hg10 mi
3:52 am60 °FClear.8 mph65%29.50 "Hg10 mi
2:52 am62 °FClear.9 mph60%29.52 "Hg10 mi
1:52 am62 °FClear.10 mph58%29.53 "Hg10 mi
12:52 am64 °FClear.8 mph52%29.55 "Hg10 mi
11:52 pm
Mon, Apr 24
64 °FClear.8 mph52%29.56 "Hg10 mi
10:52 pm62 °FClear.8 mph58%29.57 "Hg10 mi
9:52 pm61 °FClear.7 mph58%29.58 "Hg10 mi
8:52 pm63 °FClear.10 mph54%29.59 "Hg10 mi
7:52 pm69 °FSunny.13 mph41%29.58 "Hg10 mi
6:52 pm71 °FSunny.14 mph38%29.59 "Hg10 mi
5:52 pm74 °FSunny.20 mph32%29.59 "Hg10 mi
Weather by CustomWeather, © 2017

See weather overviewHow to use our weather pages